When you browse on this site, cookies collect data to enhance your experience and personalize the content and advertising you see.
Visit our Privacy Policy to learn more. By continuing to use the site, you agree to this use of cookies and data.
  • In United Kingdom
  • List of Countries
  • For 7 days
  • Water Temperature
  • Weather Map
  • Weather Widgets
  • user-avatar
    Login

    Hourly Weather Havran

    Today, 25 August, Sunday

    Time Temperature Precipitation Wind Pressure Humidity
    00:00 +25°C° 0 mm 4 mps 756 mmHg 83%
    01:00 +23°C° 0 mm 4 mps 756 mmHg 84%
    02:00 +24°C° 0 mm 3 mps 756 mmHg 85%
    03:00 +24°C° 0 mm 3 mps 756 mmHg 86%
    04:00 +24°C° 0 mm 3 mps 756 mmHg 87%
    05:00 +22°C° 0 mm 3 mps 756 mmHg 89%
    06:00 +25°C° 0 mm 4 mps 756 mmHg 82%
    07:00 +26°C° 0 mm 4 mps 756 mmHg 75%
    08:00 +28°C° 0 mm 4 mps 756 mmHg 68%
    09:00 +32°C° 0 mm 5 mps 756 mmHg 57%
    10:00 +34°C° 0 mm 5 mps 756 mmHg 46%
    11:00 +38°C° 0 mm 6 mps 756 mmHg 35%
    12:00 +39°C° 0 mm 6 mps 756 mmHg 31%
    13:00 +40°C° 0 mm 6 mps 755 mmHg 28%
    14:00 +41°C° 0 mm 7 mps 755 mmHg 24%
    15:00 +39°C° 0 mm 7 mps 755 mmHg 27%
    16:00 +38°C° 0 mm 7 mps 754 mmHg 30%
    17:00 +36°C° 0 mm 7 mps 754 mmHg 33%
    18:00 +34°C° 0 mm 6 mps 754 mmHg 42%
    19:00 +30°C° 0 mm 5 mps 754 mmHg 52%
    20:00 +27°C° 0 mm 4 mps 755 mmHg 61%
    21:00 +26°C° 0 mm 4 mps 755 mmHg 67%
    22:00 +25°C° 0 mm 3 mps 755 mmHg 73%
    23:00 +24°C° 0 mm 3 mps 755 mmHg 79%

    Tomorrow, 26 August, Monday

    Time Temperature Precipitation Wind Pressure Humidity
    00:00 +24°C° 0 mm 3 mps 755 mmHg 82%
    01:00 +24°C° 0 mm 3 mps 755 mmHg 85%
    02:00 +24°C° 0 mm 3 mps 755 mmHg 89%
    03:00 +24°C° 0 mm 3 mps 755 mmHg 89%
    04:00 +24°C° 0 mm 3 mps 755 mmHg 90%
    05:00 +25°C° 0 mm 3 mps 755 mmHg 91%
    06:00 +26°C° 0 mm 4 mps 755 mmHg 83%
    07:00 +28°C° 0 mm 4 mps 755 mmHg 75%
    08:00 +29°C° 0 mm 4 mps 755 mmHg 67%
    09:00 +33°C° 0 mm 5 mps 755 mmHg 55%
    10:00 +35°C° 0 mm 6 mps 755 mmHg 42%
    11:00 +39°C° 0 mm 6 mps 755 mmHg 29%
    12:00 +39°C° 0 mm 7 mps 755 mmHg 28%
    13:00 +40°C° 0 mm 7 mps 755 mmHg 28%
    14:00 +40°C° 0 mm 8 mps 755 mmHg 27%
    15:00 +39°C° 0 mm 8 mps 754 mmHg 30%
    16:00 +38°C° 0 mm 8 mps 754 mmHg 34%
    17:00 +35°C° 0 mm 8 mps 754 mmHg 37%
    18:00 +33°C° 0 mm 7 mps 754 mmHg 46%
    19:00 +29°C° 0 mm 5 mps 755 mmHg 55%
    20:00 +27°C° 0 mm 4 mps 755 mmHg 64%
    21:00 +26°C° 0 mm 4 mps 756 mmHg 70%
    22:00 +25°C° 0 mm 3 mps 756 mmHg 77%
    23:00 +24°C° 0 mm 3 mps 756 mmHg 83%

    Day after tomorrow, 27 August, Tuesday

    Time Temperature Precipitation Wind Pressure Humidity
    00:00 +24°C° 0 mm 3 mps 756 mmHg 86%
    01:00 +24°C° 0 mm 3 mps 756 mmHg 89%
    02:00 +24°C° 0 mm 3 mps 755 mmHg 91%
    03:00 +23°C° 0 mm 4 mps 756 mmHg 91%
    04:00 +23°C° 0 mm 4 mps 756 mmHg 90%
    05:00 +23°C° 0 mm 4 mps 756 mmHg 90%
    06:00 +26°C° 0 mm 4 mps 756 mmHg 81%
    07:00 +27°C° 0 mm 5 mps 756 mmHg 71%
    08:00 +28°C° 0 mm 5 mps 756 mmHg 62%
    09:00 +30°C° 0 mm 6 mps 756 mmHg 52%
    10:00 +33°C° 0 mm 7 mps 756 mmHg 42%
    11:00 +35°C° 0 mm 8 mps 756 mmHg 32%
    12:00 +37°C° 0 mm 8 mps 756 mmHg 31%
    13:00 +37°C° 0 mm 8 mps 755 mmHg 31%
    14:00 +38°C° 0 mm 8 mps 755 mmHg 30%
    15:00 +37°C° 0 mm 8 mps 755 mmHg 33%
    16:00 +35°C° 0 mm 8 mps 755 mmHg 36%
    17:00 +34°C° 0 mm 8 mps 754 mmHg 38%
    18:00 +30°C° 0 mm 7 mps 755 mmHg 45%
    19:00 +28°C° 0 mm 6 mps 755 mmHg 53%
    20:00 +26°C° 0 mm 5 mps 755 mmHg 60%
    21:00 +25°C° 0 mm 5 mps 756 mmHg 64%
    22:00 +23°C° 0 mm 5 mps 756 mmHg 69%
    23:00 +23°C° 0 mm 4 mps 756 mmHg 73%

    28 August, Wednesday

    Time Temperature Precipitation Wind Pressure Humidity
    00:00 +22°C° 0 mm 4 mps 756 mmHg 76%
    01:00 +22°C° 0 mm 4 mps 756 mmHg 78%
    02:00 +21°C° 0 mm 3 mps 755 mmHg 81%
    03:00 +21°C° 0 mm 4 mps 755 mmHg 82%
    04:00 +21°C° 0 mm 4 mps 755 mmHg 83%
    05:00 +21°C° 0 mm 4 mps 755 mmHg 84%
    06:00 +22°C° 0 mm 5 mps 755 mmHg 76%
    07:00 +24°C° 0 mm 6 mps 755 mmHg 68%
    08:00 +27°C° 0 mm 7 mps 755 mmHg 60%
    09:00 +29°C° 0 mm 7 mps 755 mmHg 52%
    10:00 +32°C° 0 mm 8 mps 755 mmHg 44%
    11:00 +34°C° 0 mm 8 mps 755 mmHg 36%
    12:00 +34°C° 0 mm 8 mps 755 mmHg 35%
    13:00 +35°C° 0 mm 8 mps 754 mmHg 34%
    14:00 +35°C° 0 mm 8 mps 754 mmHg 33%
    15:00 +34°C° 0 mm 8 mps 754 mmHg 35%
    16:00 +34°C° 0 mm 8 mps 754 mmHg 37%
    17:00 +33°C° 0 mm 7 mps 754 mmHg 39%
    18:00 +29°C° 0 mm 6 mps 754 mmHg 48%
    19:00 +27°C° 0 mm 5 mps 754 mmHg 56%
    20:00 +25°C° 0 mm 4 mps 754 mmHg 65%
    21:00 +23°C° 0 mm 4 mps 755 mmHg 72%
    22:00 +22°C° 0 mm 4 mps 755 mmHg 79%
    23:00 +21°C° 0 mm 4 mps 755 mmHg 86%

    29 August, Thursday

    Time Temperature Precipitation Wind Pressure Humidity
    00:00 +21°C° 0 mm 3 mps 755 mmHg 88%
    01:00 +21°C° 0 mm 3 mps 755 mmHg 90%
    02:00 +21°C° 0 mm 3 mps 754 mmHg 92%
    03:00 +21°C° 0 mm 3 mps 754 mmHg 91%
    04:00 +21°C° 0 mm 3 mps 754 mmHg 91%
    05:00 +22°C° 0 mm 3 mps 754 mmHg 90%
    06:00 +23°C° 0 mm 4 mps 754 mmHg 85%
    07:00 +25°C° 0 mm 5 mps 755 mmHg 80%
    08:00 +25°C° 0 mm 5 mps 755 mmHg 74%
    09:00 +28°C° 0 mm 5 mps 755 mmHg 65%
    10:00 +30°C° 0 mm 6 mps 755 mmHg 55%
    11:00 +33°C° 0 mm 6 mps 755 mmHg 45%
    12:00 +33°C° 0 mm 6 mps 754 mmHg 42%
    13:00 +34°C° 0 mm 6 mps 754 mmHg 39%
    14:00 +34°C° 0 mm 7 mps 754 mmHg 35%
    15:00 +34°C° 0 mm 7 mps 753 mmHg 36%
    16:00 +33°C° 0 mm 7 mps 753 mmHg 36%
    17:00 +32°C° 0 mm 7 mps 753 mmHg 37%
    18:00 +28°C° 0 mm 6 mps 753 mmHg 47%
    19:00 +26°C° 0 mm 5 mps 754 mmHg 56%
    20:00 +23°C° 0 mm 4 mps 754 mmHg 66%
    21:00 +22°C° 0 mm 4 mps 754 mmHg 74%
    22:00 +21°C° 0 mm 4 mps 755 mmHg 82%
    23:00 +21°C° 0 mm 3 mps 755 mmHg 89%

    30 August, Friday

    Time Temperature Precipitation Wind Pressure Humidity
    00:00 +20°C° 0 mm 3 mps 755 mmHg 90%
    01:00 +20°C° 0 mm 3 mps 755 mmHg 90%
    02:00 +20°C° 0 mm 3 mps 755 mmHg 91%
    03:00 +20°C° 0 mm 3 mps 755 mmHg 91%
    04:00 +20°C° 0 mm 3 mps 755 mmHg 92%
    05:00 +19°C° 0 mm 3 mps 755 mmHg 93%
    06:00 +21°C° 0 mm 4 mps 755 mmHg 85%
    07:00 +22°C° 0 mm 5 mps 755 mmHg 77%
    08:00 +24°C° 0 mm 6 mps 756 mmHg 70%
    09:00 +27°C° 0 mm 6 mps 756 mmHg 60%
    10:00 +29°C° 0 mm 7 mps 756 mmHg 50%
    11:00 +32°C° 0 mm 7 mps 756 mmHg 40%
    12:00 +32°C° 0 mm 8 mps 756 mmHg 39%
    13:00 +32°C° 0 mm 8 mps 755 mmHg 38%
    14:00 +33°C° 0 mm 8 mps 755 mmHg 37%
    15:00 +32°C° 0 mm 8 mps 755 mmHg 38%
    16:00 +29°C° 0 mm 8 mps 755 mmHg 40%
    17:00 +28°C° 0 mm 9 mps 755 mmHg 41%
    18:00 +26°C° 0 mm 7 mps 755 mmHg 50%
    19:00 +22°C° 0 mm 6 mps 756 mmHg 59%
    20:00 +20°C° 0 mm 5 mps 756 mmHg 67%
    21:00 +20°C° 0 mm 5 mps 756 mmHg 73%
    22:00 +19°C° 0 mm 4 mps 756 mmHg 79%
    23:00 +19°C° 0 mm 4 mps 756 mmHg 85%
    Show more